Location: Maiden
(35.5760°N, 81.2120°W)
Time: 03:41:04
(UTC-04:00)

Vanguard 2 - Pass Details

Date: 12 August 2020
Orbit: 553 x 2937 km, 32.9° (Epoch: 20 September)

Event Time Altitude Azimuth Distance (km) Brightness Sun altitude
Rises 22:37:30 0° 260° (W) 6,788 12.9 -25.4°
Reaches altitude 10° 22:42:08 10° 260° (W) 5,717 12.4 -26.1°
Maximum altitude 22:59:21 80° 177° (S) 2,369 9.7 -28.5°
Enters shadow 23:05:40 37° 97° (E) 2,819 9.9 -29.4°
Drops below altitude 10° 23:10:41 10° 93° (E) 3,957 - -30.0°
Sets 23:13:18 0° 92° (E) 4,676 - -30.4°
